Regional Weather Roundup
Issued by NWS

Home | Current Version | Previous Version | Text Only | Print | Product List | Glossary On
Versions: 1 2 3 4 5 6 7 8 9 10 11 12 13 14 15 16 17 18 19 20 21 22 23 24 25 26 27 28 29 30 31 32 33 34 35 36 37 38 39 40 41 42 43 44 45 46 47 48 49 50
000
ASUS43 KTOP 010308
RWRKS

WEATHER ROUNDUP FOR KANSAS
NATIONAL WEATHER SERVICE GOODLAND KS
1000 PM CDT SUN AUG 31 2014

NOTE:  "FAIR" INDICATES FEW OR NO CLOUDS BELOW 12,000 FEET WITH NO
SIGNIFICANT WEATHER AND/OR OBSTRUCTIONS TO VISIBILITY.

KSZ001>006-013>018-027>032-041>047-010400-
NORTHWEST KANSAS

CITY           SKY/WX    TMP DP  RH WIND       PRES   REMARKS
GOODLAND       MOCLDY    61  57  87 N3        29.85R
HAYS           CLOUDY    70  61  73 E10       29.75R
HILL CITY      TSTM      70  62  76 SW10      29.84R
RUSSELL        TSTM      69  66  90 NE10      29.73R
$$

KSZ061>065-074>080-084>089-010400-
SOUTHWEST KANSAS

CITY           SKY/WX    TMP DP  RH WIND       PRES   REMARKS
DODGE CITY     PTCLDY    72  64  76 NE18G29   29.72R
ELKHART          N/A     77  57  50 N9          N/A
GARDEN CITY    PTCLDY    73  59  61 N23G30    29.76R
GREAT BEND     CLOUDY    70  64  83 SE6       29.79R
LIBERAL        PTCLDY    82  54  36 N7        29.72R
PRATT          CLOUDY    77  61  57 E9G20     29.72R
$$

KSZ066>073-081>083-090>101-010400-
SOUTHEAST KANSAS

CITY           SKY/WX    TMP DP  RH WIND       PRES   REMARKS
CHANUTE        PTCLDY    85  66  53 S23G30    29.76R
COFFEYVILLE    CLEAR     85  67  54 S20G29    29.76S
HUTCHINSON     CLOUDY    76  62  62 SW9G32    29.78R THUNDER
MEDICINE LODGE   N/A     88  63  43 S22G31    29.64R
NEWTON         CLOUDY    82  61  47 NE10G24   29.76F
PARSONS        PTCLDY    85  67  54 S13G23    29.78R
WICHITA INTL   CLOUDY    87  65  47 S21G32    29.68R
WICHITA JABRA  CLOUDY    87  64  46 S26G39    29.69R
WICHITA MCCONL CLOUDY    86  65  48 SE23G32   29.70R
WINFIELD       MOCLDY    86  65  49 S21G30    29.72F
$$

KSZ007>012-019>026-033>040-048>060-102>105-010400-
NORTHEAST KANSAS

CITY           SKY/WX    TMP DP  RH WIND       PRES   REMARKS
CONCORDIA      CLOUDY    69  68  96 E6        29.66F
EMPORIA        LGT RAIN  71  62  73 NW21G40   29.85R
LAWRENCE       LGT RAIN  77  63  61 W25G40    29.95R
MANHATTAN      LGT RAIN  68 N/A N/A SW10G20   29.73R
OLATHE IND     CLOUDY    84  67  56 S15G25    29.77R
OLATHE EXE     CLOUDY    83  66  56 S14G24    29.75R
SALINA         TSTM      70  66  87 S7        29.75R FOG
TOPEKA BILLARD TSTM      68  68 100 CALM      29.82R FOG
TOPEKA FORBES  TSTM      68  65  90 W17G25    29.84R VSB 1
$$


USA.gov is the U.S. government's official web portal to all federal, state and local government web resources and services.